Location: Peebles
(55.6412°N, 3.1714°W)
Time: 16:32:52
(UTC+01:00)

USA 238 DEB - Pass Details

Date: 24 January 2022
Orbit: 969 x 1243 km, 63.4° (Epoch: 04 May)

Event Time Altitude Azimuth Distance (km) Brightness Sun altitude
Rises 22:38:52 0° 304° (NW) 3,874 7.3 -48.3°
Reaches altitude 10° 22:41:28 10° 307° (NW) 2,954 6.5 -48.5°
Enters shadow 22:43:06 19° 309° (NW) 2,394 5.9 -48.7°
